Flag for Argentina Weather past 2 weeks in Tucumán, Tucumán, Argentina

Now
63 °F

Passing clouds.


Feels Like: 63 °F
Forecast: N/A
Wind: 9 mph from East

Location: Tucuman Aerodrome

Current Time: May 30, 2015 at 8:49:44 PM

Latest Report: May 30, 2015 at 7:00 PM


Visibility: N/A

Pressure: 29.95 "Hg

Humidity: 77%

Dew point: 55 °F

Location of TucumánLocation

Historic Weather in Tucumán — Graph

°F

Tucumán temperature yesterday

Maximum temperature yesterday: 66 °F (at 1:00 PM)
Minimum temperature yesterday: 57 °F (at 7:00 AM)
Average temperature yesterday: 61 °F

Past Weeks' High & Low Weather Summary

 TemperatureHumidityPressure
High86 °F (May 20, 5:00 PM)100% (May 24, 12:05 AM)30.24 "Hg (May 24, 12:05 AM)
Low52 °F (May 25, 1:00 AM)46% (May 20, 5:00 PM)29.77 "Hg (May 21, 4:00 PM)
Average65 °F82%30.01 "Hg
* Reported May 15 7:00 PM — May 30 7:00 PM, Tucumán, Weather by CustomWeather, © 2015

Note: Actual official high and low records may vary slightly from our data, if they occured in-between our weather recording intervals... More about our weather records

Advertising

Tucumán weather history for previous 24 hours

 ConditionsComfort  
Time TempWeatherWind HumidityBarometerVisibility
7:00 PM
Sat, May 30
63 °FPassing clouds.9 mph77%29.95 "HgN/A
6:00 PM66 °FPassing clouds.9 mph64%29.92 "HgN/A
5:00 PM70 °FScattered clouds.7 mph57%29.92 "HgN/A
4:00 PM68 °FScattered clouds.5 mph56%29.92 "HgN/A
3:00 PM68 °FPartly sunny.6 mph60%29.95 "HgN/A
2:00 PM70 °FScattered clouds.7 mph57%29.98 "HgN/A
1:00 PM68 °FScattered clouds.No wind64%30.01 "HgN/A
12:00 PM66 °FPassing clouds.6 mph68%30.04 "HgN/A
11:00 AM64 °FSunny.5 mph73%30.07 "Hg10 mi
10:00 AM61 °FClear.7 mph83%30.04 "Hg6 mi
9:00 AM54 °FClear.7 mph94%30.01 "Hg6 mi
8:00 AM54 °FClear.7 mph94%30.01 "Hg6 mi
7:00 AM52 °FSunny.7 mph94%30.01 "Hg10 mi
6:00 AM54 °FClear.7 mph88%30.01 "Hg10 mi
5:00 AM54 °FOvercast.7 mph88%30.01 "HgN/A
4:00 AM54 °FOvercast.5 mph94%30.01 "HgN/A
1:00 AM55 °FClear.5 mph88%30.01 "Hg10 mi
12:00 AM55 °FClear.5 mph88%30.01 "Hg10 mi
11:00 PM
Fri, May 29
57 °FClear.7 mph88%30.01 "Hg10 mi
10:00 PM59 °FClear.5 mph88%30.01 "Hg10 mi
9:00 PM61 °FClear.7 mph88%29.98 "Hg10 mi
8:00 PM63 °FPartly cloudy.2 mph83%29.98 "HgN/A
Weather by CustomWeather, © 2015

See weather overviewHow to use our weather pages